DELTA 1 DEB, 26829

Orbit data source: Space-Track

DELTA 1 DEB, 26829 is space debris in SSO originally from a launch on Thu, 12 Jun 1975 UTC launched from the Air Force Western Test Range (AFWTR). Debris objects in space refer to the collection of defunct objects orbiting the Earth. Examples of debris include non-operational satellites, rocket bodies, and fragments generated from explosions, collisions, or faulty payload assembly.

Loading next visibility...
Identifier
26829, 1975-052KH
Orbit
SSO
Country
Flag of USUS
Related business
Manufacturer
Unknown
Mission
Spacecraft
Bus & Motor
Unknown
Mass
Unknown
Launch date (UTC)
1975-06-12 (51 years ago)
Launch vehicle
Unknown
Launch site
Air Force Western Test Range (AFWTR)
Object type
Payload
Rocket body
Debris
Shape & HBR
Unknown shape, 0.1 m
Radar Cross Section
Small (<0.1 m²)

Expand to show TLE details & history
Last TLE update: 4 days ago

TLE from 4 days ago
0 DELTA 1 DEB
1 26829U 75052KH  26165.29987144 -.00000022  00000-0  43111-4 0  9999
2 26829  99.5755   1.2035 0255200 252.5256 285.6628 13.10357160515950
Epoch: 2026-06-14T07:11Z
TLE epoch observation values (Epoch: 2026-06-14T07:11:48.892Z)
Latitude
4.50201°
Longitude
171.40439°
Altitude
1,176.309 km
Speed
7.288 km/s
True Right ascension
12h 07m 50s
True Declination
4° 28' 36"
Sunlit
Object was in daylight at epoch
Visualization orbit readout
Latitude
Unknown
Longitude
Unknown
Altitude
Unknown
Speed
Unknown
Apparent Right ascension
Unknown
Apparent Declination
Unknown
Sunlit
N/A
Visualization observer readout
Local Sidereal Time
21:50:35
Azimuth
Unknown
Elevation
Unknown
Doppler factor
Unknown
Orbital elements
Apogee altitude
1,413.006 km
Perigee altitude
1,025.241 km
Semi-major axis
7,597.26 km
Eccentricity
0.02552
Inclination
99.5755°
RAAN
1.2035°
Arg. of periapsis
252.5256°
True anomaly
282.82372°
Mean anomaly
285.6628°
Eccentric anomaly
284.24557°
Mean motion
3.27761 °/min
Orbital period
109.84 mins
BSTAR
0.000043111
Loading maneuver chart data...
Computing Atmospheric mass density...
Loading historical data...
Loading historical data...
Loading historical data...
Loading historical data...
Loading historical data...
Loading historical data...
Loading historical data...

Documentation

Showing up to 5 results
|